Location: Melbourne
(37.8120°S, 144.9677°E)
Time: 11:53:18
(UTC+10:00)

ISS - Visible Passes

Search period start: 20 September 2014 00:00
Search period end: 30 September 2014 00:00
Orbit: 414 x 417 km, 51.6° (Epoch: 19 September)

Date Brightness Start Highest point End Pass type
(mag) Time Alt. Az. Time Alt. Az. Time Alt. Az.
20 Sep -1.5 19:49:48 10° SSW 19:52:15 22° SSE 19:52:15 22° SSE visible
21 Sep -1.1 19:01:16 10° SSW 19:03:32 16° SSE 19:05:30 11° ESE visible
21 Sep -0.6 20:37:13 10° SW 20:38:23 20° SW 20:38:23 20° SW visible
22 Sep -2.9 19:48:23 10° SW 19:51:41 52° SSE 19:51:41 52° SSE visible
23 Sep -2.1 18:59:38 10° SSW 19:02:44 31° SSE 19:05:01 15° E visible
23 Sep -0.6 20:36:27 10° WSW 20:37:54 20° W 20:37:54 20° W visible
24 Sep -2.6 19:47:12 10° WSW 19:50:31 51° NW 19:51:18 40° N visible
25 Sep -3.3 18:58:08 10° SW 19:01:33 83° SE 19:04:46 11° NE visible
26 Sep -0.7 19:46:39 10° W 19:48:56 17° NW 19:51:11 10° N visible
27 Sep -1.5 18:56:58 10° WSW 19:00:01 31° NW 19:03:02 10° NNE visible
29 Sep 0.0 18:57:24 10° WNW 18:58:07 11° NW 18:58:50 10° NW visible
